This is the latest recevied weather packets stored in our database for station/object K8WEH. If no packets are shown the sender has not sent any weather packets the latest 10 day(s).
| Time | Temp. | Humidity | Pressure | Rain* | Wind** | Luminosity | Snow |
|---|---|---|---|---|---|---|---|
| 1777395351 | 20° C | 64% | 1015.7 hPa | 0 mm | - | - | - |
| 1777395049 | 20° C | 65% | 1015.7 hPa | 0 mm | - | - | - |
| 1777394753 | 20° C | 63% | 1015.7 hPa | 0 mm | - | - | - |
| 1777394448 | 19.44° C | 64% | 1015.8 hPa | 0 mm | - | - | - |
| 1777394147 | 19.44° C | 62% | 1015.7 hPa | 0 mm | - | - | - |
| 1777393846 | 19.44° C | 56% | 1015.9 hPa | 0 mm | - | - | - |
| 1777393545 | 18.89° C | 57% | 1016 hPa | 0 mm | - | - | - |
| 1777393244 | 18.89° C | 56% | 1016 hPa | 0 mm | - | - | - |
| 1777392943 | 18.89° C | 54% | 1015.9 hPa | 0 mm | - | - | - |
| 1777392643 | 18.89° C | 53% | 1015.9 hPa | 0 mm | - | - | - |
| 1777392342 | 18.33° C | 51% | 1015.8 hPa | 0 mm | - | - | - |
| 1777392047 | 18.33° C | 46% | 1016 hPa | 0 mm | - | - | - |
| 1777391738 | 18.33° C | 43% | 1015.9 hPa | 0 mm | - | - | - |
| 1777391437 | 18.33° C | 44% | 1015.8 hPa | 0 mm | - | - | - |
| 1777391135 | 17.78° C | 42% | 1015.8 hPa | 0 mm | - | - | - |
| 1777390834 | 17.78° C | 39% | 1015.7 hPa | 0 mm | - | - | - |
| 1777390533 | 17.78° C | 37% | 1015.8 hPa | 0 mm | - | - | - |
| 1777390237 | 17.22° C | 36% | 1015.8 hPa | 0 mm | - | - | - |
| 1777389932 | 17.22° C | 35% | 1015.8 hPa | 0 mm | - | - | - |
| 1777389630 | 17.22° C | 35% | 1015.8 hPa | 0 mm | - | - | - |
| 1777389332 | 17.22° C | 35% | 1015.8 hPa | 0 mm | - | - | - |
| 1777389029 | 16.67° C | 35% | 1015.6 hPa | 0 mm | - | - | - |
| 1777388727 | 16.67° C | 35% | 1015.7 hPa | 0 mm | - | - | - |
| 1777388427 | 16.67° C | 35% | 1015.7 hPa | 0 mm | - | - | - |
| 1777388126 | 16.67° C | 35% | 1015.6 hPa | 0 mm | - | - | - |
* Rain latest hour (hover to see other rain measurements)
** Current wind speed in m/s (hover to see current wind gust speed)